Location: Unspecified
(0.0000°N, 0.0000°E)
Time: 04:48:26
(UTC+00:00)

A-11 Canister half - Pass Details

Date: 25 April 2026
Orbit: 1523 x 1685 km, 47.3° (Epoch: 13 May)

Event Time Altitude Azimuth Distance (km) Brightness Sun altitude
Rises 07:44:05 0° 313° (NW) 4,885 11.3 25.8°
Reaches altitude 10° 07:47:17 10° 311° (NW) 3,882 10.9 26.5°
Maximum altitude 07:57:03 65° 231° (SW) 1,741 9.5 28.9°
Drops below altitude 10° 08:06:32 10° 150° (SSE) 3,763 11.3 31.2°
Sets 08:09:37 0° 147° (SSE) 4,729 11.8 31.9°
